Flag for Sao Tome and Principe Weather past 2 weeks in São Tomé, Sao Tome and Principe

Now
77 °F

Passing clouds.


Feels Like: 78 °F
Forecast: 79 / 87 °F
Wind: 5 mph from Southwest

Location: S. Tome

Current Time: Apr 28, 2015 at 1:53:51 AM

Latest Report: Apr 28, 2015 at 12:00 AM


Visibility: N/A

Pressure: 29.89 "Hg

Humidity: 94%

Dew point: 75 °F

Location of São ToméLocation

Historic Weather in São Tomé — Graph

°F

São Tomé temperature yesterday

Maximum temperature yesterday: 88 °F (at 2:00 PM)
Minimum temperature yesterday: 73 °F (at 3:00 AM)
Average temperature yesterday: 81 °F

Past Weeks' High & Low Weather Summary

 TemperatureHumidityPressure
High90 °F (Apr 21, 3:00 PM)100% (Apr 23, 11:00 AM)32.84 "Hg (Apr 23, 11:00 AM)
Low72 °F (Apr 14, 6:00 AM)66% (Apr 16, 3:00 PM)29.77 "Hg (Apr 19, 4:00 PM)
Average81 °F81%29.89 "Hg
* Reported Midnight between Apr 12 and Apr 13 — Midnight between Apr 27 and Apr 28, São Tomé, Weather by CustomWeather, © 2015

Note: Actual official high and low records may vary slightly from our data, if they occured in-between our weather recording intervals... More about our weather records

Advertising

São Tomé weather history for previous 24 hours

 ConditionsComfort  
Time TempWeatherWind HumidityBarometerVisibility
12:00 AM
Tue, Apr 28
77 °FPassing clouds.5 mph94%29.89 "HgN/A
11:00 PM
Mon, Apr 27
77 °FPassing clouds.5 mph94%29.89 "HgN/A
9:00 PM79 °FPassing clouds.7 mph89%29.89 "HgN/A
8:00 PM81 °FPassing clouds.5 mph84%29.86 "HgN/A
6:00 PM82 °FPassing clouds.2 mph79%29.83 "HgN/A
5:00 PM84 °FPassing clouds.5 mph74%29.83 "HgN/A
4:00 PM86 °FPassing clouds.2 mph70%29.83 "HgN/A
3:00 PM86 °FPassing clouds.5 mph75%29.83 "HgN/A
2:00 PM88 °FScattered clouds.7 mph70%29.83 "HgN/A
1:00 PM86 °FPartly sunny.9 mph70%29.86 "HgN/A
12:00 PM86 °FPartly sunny.3 mph70%29.89 "HgN/A
11:00 AM86 °FScattered clouds.3 mph70%29.89 "HgN/A
10:00 AM84 °FScattered clouds.9 mph74%29.92 "HgN/A
9:00 AM84 °FScattered clouds.3 mph74%29.92 "HgN/A
8:00 AM81 °FScattered clouds.5 mph84%29.92 "HgN/A
7:00 AM77 °FScattered clouds.5 mph83%29.89 "HgN/A
5:00 AM77 °FPassing clouds.7 mph89%29.86 "HgN/A
4:00 AM73 °FPassing clouds.7 mph94%29.86 "HgN/A
3:00 AM73 °FPassing clouds.5 mph94%29.86 "HgN/A
Weather by CustomWeather, © 2015

See weather overviewHow to use our weather pages